Location: Vancouver
(49.2500°N, 123.1330°W)
Time: 02:23:16
(UTC-07:00)

ERS-2 - Visible Passes

Search period start: 29 March 2015 00:00
Search period end: 08 April 2015 00:00
Orbit: 519 x 525 km, 98.5° (Epoch: 28 March)

Date Brightness Start Highest point End Pass type
(mag) Time Alt. Az. Time Alt. Az. Time Alt. Az.
29 Mar 5.1 23:11:08 10° NNE 23:11:31 13° NNE 23:11:31 13° NNE visible
30 Mar 5.0 22:58:21 10° NNE 22:58:41 12° NNE 22:58:41 12° NNE visible
31 Mar 5.5 00:33:34 10° NNW 00:33:49 11° NNW 00:33:49 11° NNW visible
31 Mar 5.0 22:45:37 10° NNE 22:45:48 11° NNE 22:45:48 11° NNE visible
01 Apr 5.4 00:20:17 10° NNW 00:20:57 13° NNW 00:20:57 13° NNW visible
02 Apr 5.2 00:07:09 10° N 00:08:04 15° NNW 00:08:04 15° NNW visible
02 Apr 5.0 23:54:04 10° N 23:55:10 17° N 23:55:10 17° N visible
03 Apr 4.8 23:41:03 10° N 23:42:15 19° N 23:42:15 19° N visible
04 Apr 4.6 23:28:05 10° N 23:29:20 20° N 23:29:20 20° N visible
05 Apr 4.5 23:15:09 10° NNE 23:16:23 20° NNE 23:16:23 20° NNE visible
06 Apr 5.4 00:51:13 10° NW 00:51:31 11° NW 00:51:31 11° NW visible
06 Apr 4.5 23:02:15 10° NNE 23:03:24 19° NNE 23:03:24 19° NNE visible
07 Apr 5.2 00:37:29 10° NNW 00:38:33 13° NW 00:38:33 13° NW visible
07 Apr 4.5 22:49:25 10° NNE 22:50:26 17° NE 22:50:26 17° NE visible
